Showing default

GEESAT 4-06, 65124

Orbit data source: Space-Track

GEESAT 4-06, 65124 is a payload satellite owned by GeeSpace (CN) in LEO that was launched on Fri, 08 Aug 2025 UTC via a JIELONG-3 launch vehicle from the Yellow Sea Launch Area, China (YSLA). Payload-class satellites include a variety of spacecraft equipped with specific instruments for various scientific and technological missions. These include communications satellites like Starlink; space stations such as the ISS; scientific satellites like the Hubble; Earth observation satellites from companies like Planet Labs, Umbra, and HawkEye 360; GPS; miniature CubeSats for education and research; and military/defense satellites.

Loading next visibility...
Identifier
65124, 2025-170F
Orbit
LEO
Country
Flag of CNCN / PRC
Related business
Manufacturer
GWCG
Mission
Operational Commercial Navigation
Bus & Motor
GPS100, Unknown motor
Mass
130 kg wet, 130 kg dry
Launch date (UTC)
2025-08-08 (6 months ago)
Launch vehicle
JIELONG-3
Launch site
Yellow Sea Launch Area, China (YSLA)
Object type
Payload
Rocket body
Debris
Shape & HBR
Box + 2 Pan, 0.9 m
Radar Cross Section
0.833 m², Medium (>0.1 m² and < 1m²)

Expand to show TLE details & history
Last TLE update: 16 hours ago

TLE from 16 hours ago
0 GEESAT 4-06
1 65124U 25170F   26034.59262718  .00002969  00000-0  38087-3 0  9993
2 65124  49.9838  73.5159 0019853 252.1715 107.7058 14.83788503 26597
Epoch: 2026-02-03T14:13Z
TLE epoch observation values (Epoch: 2026-02-03T14:13:22.988Z)
Latitude
0.00003°
Longitude
86.3988°
Altitude
622.182 km
Speed
7.547 km/s
True Right ascension
04h 54m 03s
True Declination
0° 00' 00"
Sunlit
Object was in full shadow at epoch
Visualization orbit readout
Latitude
Unknown
Longitude
Unknown
Altitude
Unknown
Speed
Unknown
Apparent Right ascension
Unknown
Apparent Declination
Unknown
Sunlit
N/A
Visualization observer readout
Local Sidereal Time
08:35:34
Azimuth
Unknown
Elevation
Unknown
Doppler factor
Unknown
Orbital elements
Apogee altitude
632.042 km
Perigee altitude
604.262 km
Semi-major axis
6,996.289 km
Eccentricity
0.00199
Inclination
49.9838°
RAAN
73.5159°
Arg. of periapsis
252.1715°
True anomaly
107.92236°
Mean anomaly
107.7058°
Eccentric anomaly
107.8141°
Mean motion
3.70887 °/min
Orbital period
97.06 mins
BSTAR
0.00038087
Loading maneuver chart data...
Computing Atmospheric mass density...
Loading historical data...
Loading historical data...
Loading historical data...
Loading historical data...
Loading historical data...
Loading historical data...
Loading historical data...

Documentation

Showing up to 5 results
|